Simultaneous Nadir Overpasses (SNOs) Predictions

Prediction of SNOs between METOP-C and LANDSAT-8 Satellite Orbit:

Table of predicted SNOs for the next 14.0 days since TLE Epoch: 2/3/2024
Index Date (METOP-C) Time (METOP-C) Lat,Lon (METOP-C) SZA (METOP-C ) Date (LANDSAT-8) Time (LANDSAT-8) Lat,Lon (LANDSAT-8) SZA (LANDSAT-8 ) Distance(km) Time Diff (sec)
1 02/05/2024 19:02:42 -81.13, 114.05 81.35 02/05/2024 19:03:42 -81.13, 113.92 81.34 2.32 60
2 02/05/2024 19:53:22 81.14, -78.33 98.67 02/05/2024 19:53:08 81.14, -78.37 98.66 0.82 14
3 02/08/2024 14:37:02 -81.13,-179.49 82.22 02/08/2024 14:37:58 -81.13,-179.69 82.22 3.33 56
4 02/08/2024 15:27:42 81.14, -11.95 97.80 02/08/2024 15:27:24 81.13, -11.99 97.78 1.07 18
5 02/11/2024 10:11:23 -81.12,-113.48 83.18 02/11/2024 10:12:14 -81.12,-113.47 83.16 0.32 51
6 02/11/2024 11:02:01 81.15, 54.75 96.92 02/11/2024 11:01:39 81.14, 54.56 96.89 3.24 22
7 02/14/2024 05:45:42 -81.12, -47.16 84.12 02/14/2024 05:46:28 -81.11, -47.07 84.10 1.42 46
8 02/14/2024 06:36:20 81.14, 121.00 95.97 02/14/2024 06:35:53 81.14, 120.94 95.95 1.13 27
9 02/17/2024 01:20:01 -81.12, 19.48 85.05 02/17/2024 01:20:42 -81.12, 19.51 85.04 0.49 41



Historial Predications of SNOs between METOP-C and LANDSAT-8
